GFSMW_prec_cloud_273.txt.gz
Cloud_Cover
73 100 100 100 100 86 25 92 100 100 100 100 98 100 100 100 34 100 87 7 4 5 5 5 38 100 100 100 22 5 0 16 38 68 9 7 5 42 57 13 100 75 51
100 100 100 100 100 98 28 25 30 30 61 89 80 90 71 33 16 26 5 5 5 5 15 76 75 95 13 5 5 5 4 0 1 32 38 2 0 18 0 0 0 0 9
100 100 100 100 100 100 100 67 55 36 5 5 31 87 87 100 100 68 38 5 5 50 79 83 96 49 5 1 2 0 0 2 4 96 50 7 2 4 4 0 0 0 0
100 100 100 100 100 100 100 100 100 98 82 96 98 100 100 100 70 11 14 54 100 52 11 5 2 0 0 0 0 0 0 0 0 0 64 62 100 6 2 0 0 0 0
100 100 100 100 100 100 100 100 100 100 100 100 100 100 100 99 54 83 100 100 100 35 4 2 0 0 0 0 0 1 0 3 76 74 0 8 1 33 39 2 0 0 0
96 100 100 100 100 100 100 100 94 100 100 100 100 100 100 100 100 100 99 95 34 5 0 0 0 0 0 0 1 21 51 33 54 19 8 12 24 8 100 100 100 6 0
100 100 100 100 100 100 100 100 100 100 100 100 100 100 100 95 73 38 52 91 6 1 0 0 0 0 0 9 9 8 12 0 0 1 3 4 13 100 100 100 100 100 74
100 100 100 100 100 100 100 100 100 100 100 100 100 100 100 17 7 6 5 5 0 0 0 0 0 0 2 5 7 0 2 4 0 6 27 24 37 58 100 100 100 100 96
100 100 100 100 100 100 100 100 100 100 100 100 100 95 6 5 5 5 1 2 4 0 0 0 0 1 5 5 5 5 5 6 11 35 62 72 76 100 100 100 100 100 100
100 100 100 100 100 100 100 100 100 100 100 100 91 50 5 4 4 5 5 5 0 0 4 5 5 9 17 8 5 5 6 17 27 32 100 100 100 100 100 100 100 100 100
56 8 4 5 91 90 98 89 95 100 35 5 5 5 3 2 5 5 5 4 4 4 5 5 5 10 5 5 5 5 5 23 75 100 100 100 100 100 100 100 100 100 100
5 0 0 5 5 5 8 10 5 5 5 5 5 4 5 18 14 5 5 5 5 5 5 5 5 5 5 5 5 5 33 99 100 100 100 100 100 100 100 100 100 100 100
100 72 62 15 28 61 70 34 5 5 5 5 5 5 55 30 5 8 6 67 5 5 5 5 5 5 5 5 5 5 9 21 46 99 100 100 100 100 100 100 100 100 100
100 100 34 5 29 11 40 50 11 42 33 5 5 58 63 22 43 37 9 5 5 5 5 5 5 5 5 5 5 5 24 12 11 62 100 100 100 100 100 100 100 100 100
100 100 100 45 37 91 100 100 99 100 67 90 63 59 30 19 12 5 5 5 5 5 5 5 5 5 5 15 23 9 14 5 6 17 25 49 92 84 100 100 100 100 100
100 100 100 100 100 100 100 100 100 100 100 99 79 52 88 100 95 25 5 5 5 5 5 5 5 5 5 48 100 52 5 5 5 5 5 9 13 66 100 64 36 100 100
100 100 100 100 100 100 99 100 100 100 100 100 100 100 100 100 81 7 5 5 10 5 5 5 5 5 5 52 19 5 5 5 5 5 28 18 24 100 100 99 98 100 100
100 100 100 100 94 15 100 100 100 100 100 100 100 100 100 100 76 6 5 7 5 5 5 5 5 5 7 43 5 5 5 5 5 5 29 52 52 77 100 100 100 100 100
100 100 64 74 98 100 100 100 100 100 100 100 100 100 100 99 8 5 5 5 3 3 5 5 5 5 5 5 68 12 5 5 5 5 7 40 57 100 97 100 100 100 62
100 100 100 100 100 100 100 100 100 100 100 100 100 100 100 15 5 1 0 2 1 0 2 3 5 5 5 5 92 48 5 5 5 5 5 30 100 84 84 100 100 100 100
100 100 100 100 100 100 100 100 100 100 100 100 100 97 5 1 2 5 5 0 0 0 2 0 5 5 5 5 99 100 32 26 44 68 89 59 94 54 80 85 87 94 100
100 100 100 100 100 100 100 100 100 100 100 100 32 4 0 0 2 5 5 5 0 0 5 5 5 5 5 5 28 78 100 84 28 13 72 8 24 77 75 25 21 29 100
100 100 100 100 100 100 100 100 99 34 5 5 1 0 0 0 0 0 0 0 0 3 5 5 5 5 5 5 5 9 32 9 13 6 5 5 8 5 5 5 5 76 86
100 100 100 100 100 100 100 100 9 17 6 0 0 0 0 0 4 1 0 2 5 5 5 5 5 5 5 5 5 5 6 5 5 9 6 21 32 5 5 5 5 76 88
100 100 100 100 100 85 67 56 10 2 0 0 0 0 0 1 4 5 5 5 5 4 5 6 6 5 5 6 77 79 18 63 5 55 80 5 5 5 5 5 6 66 95
100 100 100 100 100 100 34 5 2 0 0 0 1 3 5 5 5 5 5 5 5 5 5 5 5 5 5 5 17 10 6 33 7 5 5 53 81 56 75 71 65 88 93

GFSMW_prec_cloud_276.txt.gz
Cloud_Cover
5 0 0 3 50 100 100 100 100 100 100 100 100 100 94 100 100 100 100 100 100 71 5 5 4 5 5 5 1 2 0 0 0 0 0 0 0 0 11 0 0 15 5
35 6 2 2 5 30 95 100 100 100 100 89 98 96 100 100 100 100 100 100 100 46 5 5 6 5 20 2 0 0 0 0 0 0 0 0 0 0 0 0 0 0 0
100 100 76 9 42 72 100 100 81 100 96 92 49 96 99 100 100 100 97 100 72 6 5 5 16 4 3 0 0 0 0 0 0 0 0 0 0 0 0 0 0 0 0
100 100 98 100 100 100 100 62 91 10 4 30 5 25 98 100 100 32 53 100 17 13 48 97 96 100 7 2 0 0 0 0 0 0 0 0 0 0 0 0 0 0 0
100 100 100 100 100 100 100 100 100 100 100 70 63 45 30 97 28 99 100 100 100 100 86 5 5 5 4 0 0 0 0 0 0 0 0 0 0 2 1 0 0 0 0
99 100 100 100 99 100 100 100 100 100 100 80 82 34 80 79 100 97 100 100 100 92 37 5 5 0 0 0 0 0 0 0 0 0 0 2 2 5 4 4 5 5 1
45 99 100 100 100 100 100 100 100 100 100 96 96 99 100 100 100 100 100 100 99 17 11 4 0 0 0 0 0 0 0 0 0 0 0 3 4 5 0 7 5 17 5
88 91 100 100 100 100 100 100 100 100 100 100 100 100 100 100 100 100 100 100 100 94 5 0 0 0 0 0 0 0 0 0 0 3 0 2 1 0 32 100 100 76 5
100 100 94 100 100 100 100 98 100 100 100 100 100 100 100 100 100 100 100 100 60 1 0 0 0 0 0 0 0 0 2 4 3 5 7 5 15 50 86 97 100 100 100
89 53 49 100 100 100 100 100 100 100 91 100 100 100 100 100 100 100 63 5 0 0 0 0 0 1 1 0 5 5 3 4 5 0 3 30 57 80 100 99 100 100 100
100 93 100 63 100 100 100 100 100 100 100 100 100 99 59 70 32 5 3 4 1 1 4 1 2 5 5 5 5 5 0 0 0 2 11 77 95 100 100 100 100 100 100
100 100 99 86 70 99 100 100 97 100 100 100 63 53 29 5 5 5 4 5 5 5 5 5 5 5 5 5 5 5 5 5 3 0 17 25 36 100 100 96 100 100 98
80 100 100 97 100 100 100 92 84 68 36 74 69 58 7 7 11 5 5 16 5 5 5 5 5 5 5 5 5 5 5 5 5 14 18 19 78 82 79 80 65 67 53
67 72 100 100 97 56 93 99 88 95 86 82 92 100 51 10 10 6 10 5 5 5 5 8 12 5 5 5 5 5 5 5 5 6 8 22 15 32 88 54 93 83 100
13 5 37 100 100 100 70 27 49 38 76 100 99 99 26 51 53 78 35 5 9 36 64 75 5 5 4 5 5 4 5 5 5 5 5 5 5 6 98 61 68 93 100
79 5 4 16 100 100 100 100 100 100 78 100 100 100 100 65 5 34 81 84 45 100 99 5 5 5 5 5 5 5 5 5 5 5 5 5 5 7 79 81 95 100 100
100 84 45 5 5 89 100 100 100 100 100 100 100 100 77 96 100 100 100 45 95 100 68 6 5 5 0 5 5 5 4 5 5 5 5 5 5 23 14 23 42 93 100
21 100 81 6 5 5 93 100 100 100 100 100 100 100 100 100 100 100 78 84 100 100 23 6 5 4 1 5 5 5 2 5 5 5 5 5 5 5 16 7 12 27 65
98 100 100 93 67 39 5 35 100 100 100 100 100 100 100 100 100 100 100 100 100 89 29 5 1 5 4 5 6 4 0 0 5 5 5 5 5 5 11 5 5 5 5
100 100 100 100 38 38 100 100 100 100 100 100 100 100 100 100 100 100 100 100 100 18 5 5 4 3 5 5 5 6 3 3 5 5 5 5 5 5 6 19 7 6 8
100 100 100 100 100 100 100 100 100 100 100 100 100 100 100 100 100 100 100 100 99 5 4 0 3 5 4 5 6 10 5 5 5 5 5 5 5 15 12 17 37 64 73
100 100 100 100 100 91 100 100 100 100 100 100 100 100 100 100 100 100 100 38 5 1 0 0 4 5 5 4 5 5 5 5 5 5 5 5 5 5 5 5 5 16 80
100 100 100 100 100 100 100 100 100 100 100 100 100 100 100 100 100 79 5 4 4 0 0 0 0 2 5 5 5 5 5 5 5 5 5 5 5 5 5 5 5 5 14
100 100 100 100 100 100 100 100 100 100 100 100 100 100 100 95 8 6 5 0 0 0 0 0 0 0 0 0 4 4 5 5 5 6 5 5 5 5 5 5 5 10 46
100 100 100 100 74 100 100 100 100 100 100 100 99 100 61 50 91 6 4 0 1 7 2 4 0 0 0 1 5 5 1 4 3 5 5 5 5 1 1 4 5 36 8
100 100 100 100 100 95 100 100 100 100 100 100 100 67 94 10 5 5 5 5 4 5 4 1 3 0 2 5 5 5 5 1 0 0 0 5 5 0 0 0 0 2 5

GFSMW_prec_cloud_279.txt.gz
Cloud_Cover
57 26 5 0 25 19 90 100 100 100 100 100 100 100 100 97 100 100 100 95 100 100 100 100 100 100 58 50 5 4 5 5 0 0 0 0 0 0 0 0 0 0 0
5 5 2 2 4 11 93 99 100 100 100 100 100 77 79 87 69 65 100 100 100 100 100 100 100 100 97 47 39 77 67 82 8 0 0 0 0 0 0 0 0 0 0
94 64 37 26 1 5 23 100 100 100 100 100 100 98 77 92 81 81 24 100 100 100 100 100 100 100 100 100 77 70 47 4 1 0 0 0 0 0 0 0 0 0 0
100 99 92 73 32 5 5 8 69 75 100 100 100 51 14 8 5 5 46 66 100 100 100 96 100 100 100 99 19 2 11 0 0 0 0 0 0 0 0 0 0 0 0
100 100 100 92 93 100 40 5 5 14 93 100 99 14 5 32 6 5 72 99 100 100 100 100 100 100 100 81 10 5 5 5 0 0 0 0 0 1 0 0 0 0 0
100 97 100 100 87 32 18 5 6 66 93 100 73 7 5 76 35 5 12 49 72 74 97 100 100 100 88 5 17 31 5 0 0 0 0 0 2 3 4 0 0 1 0
100 49 78 100 95 25 13 79 67 100 100 91 5 5 8 77 12 5 9 8 5 59 100 100 100 96 95 94 10 4 0 0 0 0 1 0 1 1 1 1 2 5 3
100 100 100 98 93 93 100 100 100 100 45 6 6 5 58 34 19 5 5 33 79 100 100 100 100 100 99 9 0 0 0 1 0 2 1 2 0 0 0 2 11 30 5
100 100 100 100 100 100 77 100 100 100 96 21 70 52 26 6 27 49 100 100 100 100 100 100 100 48 5 2 0 0 0 0 0 0 0 0 1 0 0 0 22 93 100
100 100 100 100 97 88 96 100 100 100 100 100 90 38 15 8 61 95 100 100 100 100 88 44 5 5 5 5 4 4 1 0 0 1 3 0 0 0 0 2 2 6 49
100 97 58 88 100 96 92 88 96 100 100 100 99 85 61 84 100 100 100 93 80 13 5 5 63 9 18 46 5 5 4 5 4 5 0 0 0 0 0 1 2 2 1
28 12 0 1 6 67 100 88 92 100 100 100 100 100 99 100 100 100 100 100 100 27 16 55 63 76 31 14 5 5 5 5 5 5 0 0 0 0 2 1 1 5 4
2 0 0 0 1 28 91 100 100 100 100 100 100 100 100 100 100 100 100 87 55 36 41 57 66 22 36 10 5 6 5 5 5 5 5 5 5 2 0 5 5 5 4
5 0 0 0 0 5 8 90 100 100 100 100 100 100 100 100 99 91 89 34 74 64 76 92 96 34 83 53 48 35 34 17 5 5 5 5 4 5 5 5 5 5 10
33 5 2 2 5 5 10 99 100 100 100 100 100 100 100 100 100 100 100 100 93 95 93 89 83 76 93 57 74 88 80 6 5 5 5 5 0 1 0 5 5 5 8
100 100 53 5 5 39 100 100 100 100 100 100 100 100 100 100 100 100 100 100 100 100 100 98 93 100 75 100 100 100 6 5 5 5 5 5 5 5 3 3 0 5 5
100 100 100 95 100 100 100 100 99 68 100 100 100 100 100 100 100 100 100 100 100 100 100 100 100 100 100 100 100 62 5 5 5 4 5 3 3 3 5 5 5 5 4
100 100 100 39 98 100 100 100 67 92 96 100 100 100 100 100 100 100 100 100 100 100 100 100 100 100 100 100 64 5 5 5 5 5 5 5 5 4 5 5 5 1 0
100 100 100 100 90 73 22 5 92 31 74 88 100 100 100 100 100 100 100 100 100 100 100 100 100 100 100 91 27 58 3 0 5 5 5 4 5 5 5 5 5 3 0
100 100 100 100 86 98 33 8 79 34 82 100 90 100 100 100 100 100 100 100 100 100 100 100 100 100 100 73 100 7 0 0 4 5 5 5 3 5 5 5 5 5 5
100 100 100 100 100 100 94 44 90 100 100 100 99 100 100 100 100 100 100 100 100 100 100 100 100 100 100 99 13 3 0 0 3 5 5 5 1 2 3 5 5 4 5
12 10 80 100 100 100 89 100 22 100 100 100 100 100 100 100 100 100 100 100 100 100 100 100 100 100 90 7 2 0 0 2 5 5 5 5 2 0 5 5 1 5 5
5 5 74 100 100 97 35 61 100 100 100 100 100 100 100 100 100 100 100 100 100 100 100 100 100 100 6 5 0 0 0 0 5 5 5 5 5 0 4 0 0 5 5
40 67 57 100 100 100 80 5 97 100 100 100 100 100 100 100 100 100 100 100 100 100 100 100 40 2 4 0 0 1 3 0 0 5 5 2 0 0 0 0 0 0 0
100 100 97 88 100 100 100 82 92 100 100 100 100 100 100 100 100 100 100 100 100 100 100 5 5 4 0 0 3 3 0 0 0 5 1 0 0 0 0 0 0 0 0
96 100 100 100 100 100 100 100 99 100 100 100 100 100 100 98 100 100 100 100 100 100 7 50 13 0 4 0 0 0 0 0 0 0 0 0 0 0 0 0 0 0 0

GFSMW_prec_cloud_282.txt.gz
Cloud_Cover
100 100 62 26 70 4 4 40 57 42 64 95 52 79 62 81 100 58 100 51 82 94 100 42 76 100 100 100 100 100 100 100 86 5 100 100 22 5 0 0 0 0 0
100 97 83 75 5 8 99 96 100 100 100 100 100 97 100 100 100 25 21 91 75 51 64 99 100 100 100 100 100 100 100 100 100 100 5 4 5 5 4 0 0 0 0
88 100 98 100 99 18 63 85 88 88 99 67 74 43 100 95 100 86 14 31 41 9 5 12 95 100 100 100 100 100 100 100 100 100 22 6 5 5 3 0 0 0 0
100 100 90 58 89 100 17 21 36 63 96 100 84 86 100 93 100 84 64 10 5 6 5 13 73 100 100 100 100 100 100 100 100 95 46 38 5 5 2 0 0 0 0
100 100 100 100 100 100 80 89 58 89 89 19 77 98 6 91 100 100 34 6 61 53 5 56 100 100 100 100 100 100 100 100 100 28 100 46 5 2 0 0 0 0 0
87 100 100 100 93 76 77 100 100 100 99 100 100 100 100 80 100 100 100 87 67 32 33 11 6 40 95 100 100 100 100 100 100 100 89 7 0 0 0 0 0 0 1
99 100 100 100 100 100 97 24 94 100 100 100 100 96 22 74 42 94 100 78 81 44 71 8 5 64 100 100 100 100 100 100 100 100 37 3 5 0 0 0 1 0 0
68 84 7 100 100 100 100 11 82 100 100 100 97 55 13 42 5 37 36 66 97 54 5 44 69 82 100 100 100 100 100 100 100 54 5 5 5 0 0 3 3 5 0
0 50 82 100 100 100 100 100 77 100 100 100 100 100 100 44 14 8 7 98 72 28 91 72 92 100 100 100 100 92 18 5 5 5 5 5 5 5 5 2 5 2 5
0 35 100 100 100 100 100 100 100 70 66 100 49 95 100 100 76 66 43 35 5 33 48 98 100 100 100 74 89 73 13 7 17 5 5 5 5 5 4 5 5 2 4
0 0 100 100 83 44 85 7 100 100 98 96 58 67 100 100 100 80 7 95 57 96 88 100 100 100 69 75 20 86 90 80 12 18 5 10 5 14 5 5 2 1 5
4 5 0 2 0 3 0 4 54 100 96 8 47 100 100 100 100 100 100 100 82 95 100 100 100 100 100 100 100 62 95 42 54 5 32 51 27 5 30 3 0 5 5
91 75 50 2 0 1 5 0 5 49 98 100 21 86 100 100 100 100 100 100 100 100 100 100 100 100 100 73 78 100 69 67 81 70 60 63 49 88 4 2 0 5 5
57 100 100 97 10 3 3 5 0 0 0 4 92 100 100 100 100 100 100 100 100 100 100 100 100 100 100 100 100 100 100 100 92 100 99 100 100 84 0 0 0 4 4
87 100 100 100 100 84 19 5 0 0 0 0 4 18 98 100 100 100 100 100 100 100 100 100 100 100 100 100 100 100 100 100 100 100 100 100 92 0 3 2 0 1 3
100 100 93 100 100 100 100 22 5 4 3 5 5 5 17 100 100 100 100 100 100 100 100 100 100 100 100 100 100 100 100 100 100 100 100 100 5 5 0 0 0 0 4
100 33 95 48 100 100 11 8 5 5 5 5 52 5 96 100 100 100 100 100 100 100 100 100 100 100 100 100 100 100 100 100 100 100 88 64 2 1 5 5 0 0 0
100 5 49 5 19 82 100 44 73 100 88 60 44 10 96 100 100 100 100 100 100 100 100 100 100 100 100 100 100 100 100 100 100 100 100 66 0 1 5 5 1 0 0
100 96 46 6 100 22 35 52 45 69 100 64 100 98 68 100 100 100 100 100 100 100 100 100 100 100 100 100 100 100 100 100 46 48 100 40 0 0 4 5 5 0 0
93 3 0 41 100 100 100 100 98 100 99 86 44 27 94 100 100 100 100 100 100 100 100 100 100 100 100 100 100 100 100 73 24 100 91 5 0 0 0 5 5 0 2
100 100 9 18 100 100 100 100 100 100 100 84 5 19 100 100 100 100 100 100 100 100 100 100 100 100 100 100 83 88 100 84 100 100 9 3 0 0 0 0 0 0 5
84 85 17 2 90 100 100 100 100 100 98 100 71 97 100 97 100 100 100 100 100 100 100 100 100 100 100 99 85 100 100 100 100 21 4 0 0 0 0 0 0 0 0
100 86 5 5 100 76 100 100 100 99 100 100 100 100 100 100 100 100 100 100 100 100 100 100 100 100 100 99 100 100 100 100 16 5 2 0 0 0 0 0 0 0 0
65 60 8 92 30 73 100 100 100 100 100 100 100 100 100 100 100 100 100 100 100 100 100 100 100 100 100 100 100 100 100 100 10 1 0 0 0 0 0 0 0 0 0
84 100 44 4 92 31 100 100 100 100 100 100 100 100 100 100 100 100 100 100 100 100 100 100 100 100 100 100 100 100 100 55 4 5 0 0 2 4 0 0 0 0 0
5 88 100 7 17 78 100 100 70 64 100 100 100 100 100 100 100 100 100 100 100 100 100 100 100 100 100 100 100 100 39 5 13 1 3 5 5 3 0 0 0 0 0

GFSMW_prec_cloud_288.txt.gz
Cloud_Cover
100 100 100 100 100 100 100 100 23 5 49 34 17 12 30 24 5 36 100 100 100 100 32 5 14 51 52 16 5 5 5 5 23 84 95 100 100 100 100 100 100 100 100
100 100 100 100 100 100 100 100 100 37 5 64 100 68 22 9 5 0 5 42 98 100 57 36 9 7 14 71 56 10 8 7 24 5 19 63 100 100 100 72 92 100 100
100 99 100 100 100 100 100 100 100 100 92 82 100 100 100 89 6 5 5 5 5 29 75 52 8 62 32 14 6 24 40 58 41 26 57 98 100 100 100 86 62 69 90
100 100 100 100 100 100 100 99 100 100 91 100 100 100 100 34 5 5 8 6 5 6 5 6 12 20 22 99 80 98 100 89 8 5 5 7 63 100 100 98 100 100 90
100 100 100 100 82 85 5 42 100 100 100 100 94 100 100 99 56 46 46 8 18 5 4 5 5 8 95 100 100 41 44 34 7 5 5 8 6 61 62 55 83 92 99
94 74 87 96 81 5 5 5 39 100 100 100 100 100 100 100 100 100 82 5 5 5 5 5 16 97 100 94 97 90 99 97 74 13 26 94 100 100 100 100 100 100 100
40 100 100 100 100 91 7 32 96 100 70 100 100 100 100 100 100 100 95 54 5 5 12 52 87 98 80 66 50 5 68 100 100 98 86 100 100 100 100 100 100 100 100
35 5 100 100 100 100 100 20 87 100 75 65 100 100 100 100 100 100 50 100 100 100 100 100 100 99 100 95 67 12 6 96 100 100 100 100 100 100 100 100 100 100 100
7 5 9 36 100 26 84 38 5 33 16 5 45 100 100 100 100 100 99 100 100 100 100 100 100 100 100 100 16 71 77 70 98 100 100 99 100 100 100 100 100 100 64
2 14 91 40 10 99 10 5 4 3 2 4 8 100 100 100 100 100 84 100 100 100 100 100 100 100 100 100 98 100 100 100 100 100 100 100 100 100 100 100 100 91 68
24 2 94 54 92 54 6 4 0 15 6 5 25 100 100 100 100 100 90 100 100 100 100 100 100 100 100 100 100 100 100 100 100 100 100 100 100 100 100 100 51 99 88
35 0 19 3 0 0 83 97 99 10 5 5 2 71 100 64 36 11 5 13 100 100 100 100 100 98 100 100 100 100 100 100 100 100 100 100 100 100 100 100 100 100 96
1 0 1 2 5 5 6 92 39 5 0 0 78 6 43 65 76 18 5 5 15 65 100 100 100 96 78 91 99 100 100 100 100 99 100 75 100 100 100 100 100 59 28
5 0 0 0 0 3 43 16 96 46 5 0 0 2 5 5 8 4 2 0 0 3 1 5 72 94 96 100 99 100 96 100 100 100 100 100 100 100 100 100 96 73 100
1 0 0 2 60 8 97 100 100 100 5 3 5 10 5 1 3 5 1 0 4 1 0 1 5 5 34 62 100 100 100 100 100 100 100 100 100 100 100 100 100 93 99
1 0 0 0 1 16 59 100 100 100 8 5 41 55 19 5 0 5 0 0 4 0 0 0 2 5 14 100 100 100 100 100 100 100 100 100 100 100 100 100 100 100 100
0 1 0 0 0 28 100 100 100 100 28 5 58 92 93 12 5 2 5 0 0 1 35 57 22 5 100 100 46 100 99 100 100 100 100 100 100 100 100 100 100 100 100
0 0 4 0 45 16 81 100 100 100 96 57 9 80 100 100 94 61 63 68 82 59 29 98 32 80 98 88 97 100 100 70 98 100 100 100 100 100 100 100 100 80 36
0 0 0 2 98 86 100 100 100 100 100 5 26 15 95 100 100 100 100 98 73 42 64 90 100 100 92 100 84 60 58 90 100 100 100 100 100 100 100 100 100 17 5
1 3 1 0 77 96 100 100 100 100 100 100 80 35 100 56 100 100 100 100 100 100 98 100 100 100 99 100 56 92 100 100 100 100 100 100 100 100 100 100 58 5 7
61 2 0 2 6 37 100 100 98 93 100 100 100 100 100 47 99 100 100 100 100 100 100 100 100 100 100 100 100 100 100 100 100 100 100 100 100 100 100 73 14 14 78
100 28 4 62 60 14 38 100 94 100 98 100 100 100 100 47 100 100 100 100 100 100 100 100 100 100 100 100 100 100 100 100 100 100 100 100 100 85 100 28 29 37 29
100 100 87 96 93 25 5 100 100 98 100 100 100 100 100 43 100 100 100 100 100 100 100 100 100 100 100 100 100 100 100 100 100 100 100 100 100 100 20 18 59 57 7
100 100 100 100 87 99 89 100 100 100 100 100 100 99 58 85 100 100 100 100 100 100 100 100 100 100 100 100 100 100 100 100 100 100 100 100 100 100 47 50 34 19 51
100 100 100 100 100 100 100 100 100 100 98 100 9 5 11 96 100 100 100 100 100 100 100 100 100 100 100 100 100 100 100 100 100 100 100 100 100 100 61 60 8 43 42
100 100 100 100 99 100 100 100 100 99 91 100 80 98 95 100 100 100 100 100 100 100 100 100 100 100 100 100 100 100 100 100 100 100 100 100 100 96 69 67 14 89 51

GFSMW_prec_cloud_291.txt.gz
Cloud_Cover
100 100 100 50 95 100 35 5 100 100 100 95 91 100 44 99 21 5 5 5 6 40 89 100 100 71 70 6 5 5 5 5 5 5 5 5 5 5 5 5 5 100 100
100 100 100 100 100 83 36 8 23 71 95 95 100 100 100 97 94 64 66 28 6 6 37 2 20 85 93 99 64 58 23 5 6 5 5 15 26 11 5 5 5 11 57
100 100 100 100 100 100 100 88 55 22 78 86 100 100 97 100 67 56 99 89 36 5 4 3 5 5 3 1 5 8 5 5 7 42 11 25 6 5 7 5 5 5 46
100 100 100 100 100 100 98 12 10 68 94 100 98 100 100 100 100 100 85 100 100 19 5 5 5 5 18 16 5 5 5 7 32 98 84 53 52 44 55 34 5 60 9
100 100 100 100 100 100 100 100 98 82 100 100 100 100 100 98 74 100 100 100 94 30 5 5 5 5 80 24 5 12 5 5 5 5 5 29 64 49 14 6 10 26 81
100 100 100 100 100 100 100 100 100 100 100 100 100 100 100 100 100 100 100 100 61 57 47 5 16 17 56 56 27 13 29 6 97 56 5 5 5 5 5 5 5 8 95
100 100 100 100 100 100 100 100 100 100 100 100 100 100 100 100 100 100 100 100 98 49 5 31 44 35 31 30 48 34 75 100 100 99 62 14 60 65 100 92 90 92 98
100 100 100 100 100 100 100 100 100 100 100 100 99 100 100 83 100 100 100 100 100 100 97 100 94 95 83 100 100 93 95 100 100 100 98 99 100 100 81 90 100 100 100
27 89 100 100 100 100 100 100 77 77 96 82 100 100 82 4 22 95 100 100 84 86 68 92 100 100 100 100 100 100 100 100 100 100 100 100 100 100 100 100 90 86 100
2 1 4 99 100 100 100 65 52 100 69 100 100 100 7 2 6 79 39 77 99 100 100 100 100 100 90 100 100 100 100 96 99 100 100 100 100 100 100 100 100 100 100
2 4 4 37 100 43 92 79 32 33 84 100 91 46 5 5 10 11 6 49 62 100 98 100 100 99 100 100 97 94 100 100 100 100 100 100 78 100 100 100 100 100 100
0 5 2 5 97 1 7 5 84 55 100 59 21 57 99 100 100 14 72 64 71 87 100 92 100 98 58 100 20 88 98 63 41 89 97 38 51 50 100 100 100 100 100
0 0 4 2 5 98 100 27 99 100 100 10 2 3 14 100 100 16 98 100 70 76 100 59 44 85 85 53 10 7 55 14 48 44 70 16 39 5 5 35 47 59 93
0 0 0 0 1 74 81 100 72 75 100 100 43 5 4 4 19 52 57 21 74 74 99 11 5 5 9 5 3 5 10 5 5 5 5 4 5 9 25 37 23 53 60
0 0 0 0 0 0 12 100 25 5 93 100 76 13 5 5 18 46 16 5 52 5 22 45 68 35 2 2 0 0 5 5 5 51 4 2 5 5 5 69 97 63 83
0 0 0 0 0 0 0 4 54 100 100 100 100 93 5 6 65 15 79 81 9 5 4 2 5 5 0 0 5 0 5 10 32 18 5 5 5 5 24 97 31 81 97
5 1 0 0 0 0 0 0 0 2 88 100 100 100 100 3 5 61 70 100 100 24 10 5 10 20 19 5 5 5 10 28 97 47 5 16 5 9 100 100 100 100 100
0 4 0 0 0 0 0 0 0 3 7 100 100 100 100 49 11 30 38 99 95 100 14 32 58 49 27 21 43 30 5 84 77 80 59 5 5 100 100 100 100 100 100
1 0 5 0 0 0 0 0 0 2 75 92 100 100 100 100 100 100 100 100 83 58 62 100 100 100 89 79 98 96 100 100 100 100 93 60 76 72 44 100 86 100 100
46 2 0 5 0 0 2 8 11 71 6 88 100 100 100 100 100 100 92 100 58 96 100 100 100 100 100 100 100 100 100 100 100 100 92 98 99 79 91 88 100 73 52
62 3 0 5 5 5 1 56 100 100 98 100 100 91 100 100 100 47 63 100 49 85 100 100 100 100 100 100 100 100 100 100 100 100 100 100 100 100 94 97 98 93 94
5 5 40 16 5 4 5 5 22 97 100 100 100 100 100 100 100 100 100 100 100 100 96 91 100 100 100 100 100 100 100 100 100 100 100 100 100 100 100 100 100 100 100
89 24 98 99 80 16 93 86 82 100 100 100 100 100 100 100 100 100 100 100 100 100 100 100 100 100 100 100 100 100 100 100 100 100 100 100 100 100 100 100 100 100 100
100 97 92 100 100 100 100 100 100 100 100 100 100 100 100 100 100 100 100 95 57 100 100 100 100 98 72 100 100 100 100 100 100 100 100 100 100 100 100 100 100 100 100
100 100 100 100 100 100 100 100 93 100 100 100 100 100 99 97 39 5 47 100 100 100 100 100 63 100 100 100 100 100 100 100 100 100 100 100 100 100 100 100 100 100 100
100 100 100 100 100 100 100 100 100 100 100 100 97 90 94 94 40 22 100 97 100 100 100 99 100 100 100 100 100 100 100 100 100 100 100 100 100 100 100 100 100 100 100

GFSMW_prec_cloud_297.txt.gz
Cloud_Cover
100 100 100 100 100 90 100 100 98 98 100 100 99 91 100 100 100 70 53 5 5 5 5 0 7 86 46 79 0 0 0 0 0 0 0 0 0 0 0 0 0 0 0
100 100 100 100 100 100 100 83 82 97 100 100 96 80 80 100 99 99 91 66 5 30 40 11 5 43 100 76 5 0 0 0 0 0 0 0 1 1 0 0 0 0 0
100 100 100 100 100 100 100 100 100 98 98 79 85 90 100 100 100 96 8 63 23 66 53 38 8 6 29 1 5 5 0 0 0 0 0 0 0 0 0 0 0 0 0
100 100 100 100 100 100 100 100 100 100 71 61 50 100 59 98 68 99 26 5 5 5 5 24 3 3 2 5 5 5 5 5 5 5 5 2 4 3 0 0 0 0 0
100 100 100 100 100 100 100 100 72 43 93 100 100 99 18 14 87 97 6 11 19 18 44 84 44 5 5 5 5 5 5 4 5 5 5 5 0 3 0 5 2 5 1
100 100 100 100 100 100 100 100 100 100 100 100 100 100 54 5 5 18 100 95 99 96 95 97 69 26 5 5 5 5 5 10 8 5 14 6 5 5 5 5 5 35 5
80 100 100 100 100 100 100 100 100 100 55 100 90 51 6 75 56 100 47 100 100 89 98 59 44 16 13 5 5 5 7 32 5 7 35 16 29 5 29 5 7 5 16
0 0 3 18 63 94 100 99 100 100 100 100 100 100 100 100 98 99 100 100 100 100 100 96 36 5 16 5 26 24 13 24 26 51 31 98 14 30 11 5 5 6 1
5 36 25 11 15 50 94 100 100 100 100 100 100 100 100 100 100 100 100 100 100 100 100 90 58 52 5 5 5 5 5 5 35 7 57 53 9 42 28 2 0 0 0
2 1 5 57 28 13 45 100 100 100 100 100 100 100 100 100 100 100 100 100 100 100 100 100 38 42 27 5 5 5 5 5 5 28 35 6 5 3 5 3 0 0 0
23 42 5 80 92 71 100 100 100 100 100 100 100 100 100 100 100 100 100 100 100 100 100 100 100 37 5 27 82 14 7 5 5 5 34 5 6 4 2 0 0 0 0
1 43 85 49 100 98 100 100 100 100 100 100 100 100 100 100 100 100 100 100 100 100 100 100 100 100 99 100 76 70 63 10 6 38 43 55 6 0 0 0 0 0 0
0 0 11 70 100 100 100 100 100 100 100 100 100 100 100 100 100 100 100 100 100 100 100 100 100 100 82 100 95 52 28 43 66 48 88 34 5 0 5 1 0 1 0
0 0 0 1 8 62 97 100 100 100 100 100 100 100 100 100 100 100 100 100 100 100 100 100 100 100 100 100 100 82 96 87 99 100 91 5 57 34 5 5 5 5 5
0 0 0 0 0 0 1 29 93 100 100 100 100 100 100 100 100 100 100 100 100 100 100 100 100 84 89 76 54 55 57 58 44 96 50 41 96 5 5 5 27 58 96
0 0 0 0 0 0 0 0 4 55 98 100 100 100 100 100 100 100 100 100 100 100 100 100 100 41 37 5 86 62 5 34 32 68 100 100 37 77 100 100 92 33 100
0 0 0 0 0 0 0 0 0 0 34 90 100 100 100 100 100 100 100 100 100 95 100 100 100 92 5 49 8 5 5 19 96 100 100 100 100 100 100 80 81 100 100
2 0 0 0 0 0 0 0 0 0 0 28 75 45 100 100 100 100 92 98 100 100 100 100 100 100 99 99 60 38 100 98 99 77 83 99 98 83 84 99 99 100 100
5 5 5 0 0 0 0 0 0 0 0 0 4 13 100 100 100 100 100 100 100 100 100 100 100 81 99 100 100 100 100 100 97 98 91 65 5 41 100 100 100 100 100
0 0 0 0 0 3 0 0 0 2 0 0 0 3 48 100 100 100 100 100 100 100 97 80 85 100 100 100 100 98 98 82 49 65 81 100 100 100 100 99 100 100 100
0 0 0 0 0 1 5 1 0 1 29 6 0 0 5 100 100 100 100 100 100 100 100 92 72 100 100 100 100 100 100 96 76 7 13 100 100 100 84 90 99 100 100
5 4 3 0 0 0 5 5 5 3 2 1 3 0 1 8 94 100 100 100 100 100 96 97 100 100 100 100 100 100 100 100 96 18 93 100 99 93 39 47 100 100 100
0 2 5 5 0 0 5 5 5 5 5 2 7 2 19 10 5 79 100 100 100 100 83 98 100 100 100 100 100 100 100 100 100 100 100 100 100 100 95 100 100 100 100
0 0 0 0 0 0 0 5 5 5 5 5 14 30 54 77 69 52 52 100 100 100 100 27 92 100 100 100 100 100 100 100 100 100 100 100 100 75 75 100 100 100 100
0 0 1 0 1 5 4 0 4 5 5 6 78 81 75 99 100 100 100 100 100 100 98 92 100 100 100 100 100 100 100 100 100 100 100 100 76 78 97 100 100 100 100
0 0 0 0 3 5 40 5 2 3 5 10 100 100 100 100 100 100 100 100 100 100 84 99 100 100 100 100 100 100 100 100 100 89 100 99 48 48 100 100 100 100 100